Regional Weather Roundup
Issued by NWS

Current Version | Previous Version | Text Only | Print | Product List | Glossary On
Versions: 1 2 3 4 5 6 7 8 9 10 11 12 13 14 15 16 17 18 19 20 21 22 23 24 25 26 27 28 29 30 31 32 33 34 35 36 37 38 39 40 41 42 43 44 45 46 47 48 49 50
000
ASUS44 KFWD 072115
RWRTX
NORTH TEXAS HOURLY WEATHER ROUNDUP
NATIONAL WEATHER SERVICE FORT WORTH TX
300 PM CST SUN FEB 07 2016

NOTE: "FAIR" INDICATES FEW OR NO CLOUDS BELOW 12,000 FEET WITH NO
SIGNIFICANT WEATHER AND/OR OBSTRUCTIONS TO VISIBILITY.

TXZ118-119-072200-
DALLAS/FORT WORTH METROPLEX

CITY           SKY/WX    TMP DP  RH WIND       PRES   REMARKS
DFW AIRPORT    MOSUNNY   62  30  29 SW8       30.09F
DALLAS LOVE    SUNNY     61  32  33 SW5       30.10F
FTW MEACHAM    SUNNY     64  30  27 CALM      30.08F
DAL-EXECUTIVE  SUNNY     62  31  31 SW8       30.09F
FTW-ALLIANCE   SUNNY     62  30  29 VRB3      30.09F
FTW-NAS-JRB    MOSUNNY   65  26  23 CALM      30.09F
FTW-SPINKS     SUNNY     64  32  29 W5        30.10F
ARLINGTON      SUNNY     64  32  30 VRB5      30.10F
GRAND PRAIRIE  SUNNY     61  34  36 SE14G23   30.11F
ADDISON        SUNNY     63  34  34 S9        30.10F
MESQUITE       SUNNY     63  30  29 S9G20     30.11F
LANCASTER      SUNNY     61  31  32 S5        30.12F
$$

TXZ091>094-102>105-117-120-121-131>134-072200-
NORTH CENTRAL TEXAS

CITY           SKY/WX    TMP DP  RH WIND       PRES   REMARKS
SHRMAN/DENISON SUNNY     62  33  33 W7        30.11R
GAINESVILLE    SUNNY     61  29  30 W5        30.12R
BOWIE          SUNNY     61  26  26 NW6       30.10R
BRIDGEPORT     SUNNY     61  32  34 NW6       30.12S
DECATUR        SUNNY     60  27  28 CALM      30.09F
DENTON         SUNNY     62  32  32 W8        30.09F
MCKINNEY       SUNNY     62  29  28 SW7       30.09F
GREENVILLE     SUNNY     63  30  29 SW10G20   30.10F
ROCKWALL       SUNNY     62  34  35 W10       30.10F
TERRELL        SUNNY     62  34  35 S10       30.11F
WAXAHACHIE     SUNNY     62  36  37 SW9       30.11F
CLEBURNE         N/A     63  32  31 SW5       30.10F
GRANBURY       SUNNY     66  26  22 CALM      30.09F
$$

TXZ083>090-098>101-113>116-127>130-139>142-154-155-072200-
WESTERN NORTH TEXAS

CITY           SKY/WX    TMP DP  RH WIND       PRES   REMARKS
WICHITA FALLS  SUNNY     61  28  28 N13       30.12S
WF-KICKAPOO    SUNNY     60  28  29 N13G18    30.14R
VERNON         SUNNY     62  23  22 N21G26    30.14R
ABILENE        SUNNY     64  23  21 N12       30.09S
ABILENE-DYESS  SUNNY     63  24  23 N14       30.08F
BRECKENRIDGE   SUNNY     64  22  19 N12       30.08S
GRAHAM         SUNNY     64  27  25 CALM      30.08F
MINERAL WELLS  SUNNY     64  25  22 E5        30.07F
STEPHENVILLE   SUNNY     67  19  16 W13G18    30.10F
COMANCHE       SUNNY     69  26  19 NW7       30.07F
BROWNWOOD      SUNNY     72  18  13 W14G22    30.06F
COLEMAN        SUNNY     71  21  14 NW13G21   30.06F
$$

TXZ143>147-156>162-174-175-072200-
CENTRAL TEXAS

CITY           SKY/WX    TMP DP  RH WIND       PRES   REMARKS
WACO           SUNNY     64  34  32 S12       30.10F
WACO-TSTC      SUNNY     64  34  32 S9        30.11F
WACO-MCGREGOR  SUNNY     65  34  31 SW7       30.10F
HILLSBORO      SUNNY     62  33  33 SW6       30.11S
CORSICANA      SUNNY     64  32  30 SW15      30.13S
MEXIA          SUNNY     62  33  33 S15G24    30.11S
HEARNE         SUNNY     64  33  32 S8        30.13F
CAMERON        SUNNY     64  33  31 S10G23    30.11F
TEMPLE         SUNNY     66  33  29 S12       30.10F
KILLEEN        SUNNY     66  28  23 SW8       30.08F
KILLEEN-SKYLRK SUNNY     67  31  26 S12G17    30.08F
FORT HOOD      SUNNY     67  29  23 W8        30.06F
GATESVILLE     SUNNY     66  30  26 SW6       30.10F
HAMILTON       SUNNY     68  28  21 W8        30.08S
LAMPASAS       SUNNY     70  32  24 SW8       30.07F
$$

TXZ095>097-106>112-122>126-135>138-148>153-164>167-072200-
EAST TEXAS

CITY           SKY/WX    TMP DP  RH WIND       PRES   REMARKS
PARIS          SUNNY     61  36  39 SW10      30.10S
SULPHUR SPRNGS SUNNY     62  30  29 SW12      30.12F
MOUNT PLEASANT SUNNY     62  32  31 SW5       30.12F
GILMER         SUNNY     61  30  31 S7        30.12F
MINEOLA        SUNNY     63  32  31 S6        30.12F
TYLER          SUNNY     63  31  30 SW8       30.12F
LONGVIEW       SUNNY     62  33  33 CALM      30.11F
MARSHALL       SUNNY     60  28  29 SW8       30.14F
ATHENS         SUNNY     61  32  33 SW6       30.11F
PALESTINE      SUNNY     62  36  37 CALM      30.14S
JACKSONVILLE   SUNNY     62  33  33 SW3       30.14S
HENDERSON      SUNNY     63  33  32 W6        30.14S
CENTER         FAIR      62  32  31 NW6       30.13S
NACOGDOCHES    SUNNY     61  34  36 W6        30.13F
LUFKIN         SUNNY     62  29  28 SW6       30.13F
$$

SUPPLEMENTAL OBSERVATIONS (CENTRAL)

CITY           SKY/WX    TMP DP  RH WIND       PRES   REMARKS
LAKE TEXOMA      N/A     59  32  36 NW6         N/A
CADDO GRASSLND   N/A     64  32  29 SW9G17      N/A
PAT MAYSE LAKE   N/A     57  34  41 S9          N/A
GREENVILLE       N/A     63  32  31 SW10        N/A
CEDAR HILL       N/A     64  32  29 SW6         N/A
ATHENS           N/A     64  34  32 S8          N/A
LAKE LIMESTONE   N/A     64  34  32 SW13        N/A
MCGREGOR         N/A     66  32  28 SW6G14      N/A
TEMPLE           N/A     66  34  30 SW6G22      N/A
$$

SUPPLEMENTAL OBSERVATIONS (WEST)

CITY           SKY/WX    TMP DP  RH WIND       PRES   REMARKS
MILLERS CREEK    N/A     61  28  29 VRB14       N/A
POSSUM KINGDOM   N/A     64  28  25 N6G14       N/A
LBJ GRASSLAND    N/A     64  30  27 SW5         N/A
GRANBURY         N/A     66  25  20 N5          N/A
COMANCHE         N/A     70  25  18 NW10G20     N/A
HAMBY            N/A     63  23  22 N10         N/A
IVIE RESERVOIR   N/A     73  19  13 NW17G25     N/A
COLORADO BEND    N/A     70  25  18 W9G17       N/A
$$

SUPPLEMENTAL OBSERVATIONS (EAST)

CITY           SKY/WX    TMP DP  RH WIND       PRES   REMARKS
HENDERSON        N/A     63  32  31 SW9         N/A
LUFKIN           N/A     66  34  30 MISG        N/A
N SABINE NF      N/A     64  32  29 MISG        N/A
$$

SUPPLEMENTAL OBSERVATIONS ARE A COLLECTION OF AUTOMATED INSTRUMENTS
THAT ARE MAINTAINED BY A VARIETY OF FEDERAL AND STATE AGENCIES.
CERTAIN ELEMENTS...SUCH AS HUMIDITY VALUES AND SUSTAINED WIND
SPEEDS...MAY BE APPROXIMATED.




USA.gov is the U.S. government's official web portal to all federal, state and local government web resources and services.